[[{"header":{"parameterUnit":"m.s-1","parameterCategory":1,"la1":30.2992,"la2":30.254,"lo1":-89.0895,"lo2":-89.0443,"dy":0.0025,"dx":0.0025,"nx":19,"ny":19,"refTime":"2026-04-04T21:00:00:Z","depth":0,"parameterNumber":2,"parameterNumberName":"U-component_of_WINDS"},"data":[0,0,0,-4.4381,-4.4385,-4.4542,-4.4542,-4.4772,-4.4774,0,0,0,0,0,0,0,0,0,0,0,-4.4354,-4.4356,-4.4381,-4.4386,-4.4542,-4.4542,-4.4771,-4.4774,0,0,0,0,0,0,0,0,0,0,0,-4.4353,-4.4356,-4.4358,-4.4386,-4.4541,-4.4542,-4.4771,-4.4642,0,0,0,0,0,0,0,0,0,0,-4.4485,-4.4478,-4.4355,-4.4358,-4.4387,-4.4541,-4.4542,-4.4635,-4.465,-4.4714,0,-4.4776,0,-4.4779,-4.4791,-4.4792,0,0,0,-4.4371,-4.4466,-4.4491,-4.4359,-4.4389,-4.4541,-4.4467,-4.4643,-4.466,-4.4734,-4.4779,-4.4787,-4.4783,-4.4793,-4.4794,-4.5211,-4.5214,0,0,-4.4363,-4.4392,-4.448,-4.4503,-4.4482,-4.4462,-4.4472,-4.4653,-4.4704,-4.478,-4.4792,-4.4787,-4.4795,-4.4797,-4.5209,-4.5212,0,0,0,-4.4348,-4.4387,-4.4407,-4.4495,-4.452,-4.4467,-4.4479,-4.4696,-4.47,-4.4794,-4.4789,-4.4796,-4.4799,-4.5206,-4.521,-4.5369,0,0,0,-4.4342,-4.4378,-4.4404,-4.4423,-4.4518,-4.4611,-4.4519,-4.4688,-4.4707,-4.4788,-4.4796,-4.4802,-4.5203,-4.5208,-4.5359,-4.5441,0,0,0,-4.4337,-4.4377,-4.4406,-4.4424,-4.4493,-4.4607,-4.4621,-4.4691,-4.4705,-4.4793,-4.4803,-4.5201,-4.5207,-4.5349,-4.5425,-4.5561,0,0,0,-4.4341,-4.4545,-4.4409,-4.4634,-4.4492,-4.4704,-4.4619,-4.4775,-4.4869,-4.4798,-4.5203,-4.5209,-4.5346,-4.5415,-4.5551,-4.5682,-4.5739,0,0,-4.4614,-4.4579,-4.4709,-4.4592,-4.4836,-4.4677,-4.4944,-4.5002,-4.4982,-4.5136,-4.5146,-4.5362,-4.5424,-4.5558,-4.6042,-4.6088,0,0,0,-4.4805,-4.49,-4.4958,-4.5049,-4.5097,-4.5146,-4.5159,-4.518,-4.5309,-4.5068,-4.5445,-4.5481,-4.5559,-4.562,-4.5659,-4.5725,-4.5238,-4.5238,-4.5237,-4.5237,-4.5201,-4.5414,-4.5398,-4.5487,-4.5498,-4.5567,-4.5597,-4.5535,-4.5625,-4.5671,-4.5969,-4.6042,-4.6071,-4.614,-4.5735,-4.5736,-4.5736,-4.5736,-4.5636,-4.5765,-4.5676,-4.5852,-4.5813,-4.596,-4.5978,-4.5929,-4.606,-4.5931,-4.5998,-4.5863,-4.6122,-4.618,-4.5748,-4.5746,-4.5745,-4.5744,-4.5743,-4.5917,-4.5973,-4.5994,-4.6122,-4.6224,-4.6198,-4.6329,-4.6287,-4.6249,-4.6315,-4.6361,-4.6358,-4.6352,-4.6339,-4.634,-4.6341,-4.6342,-4.6343,-4.6344,-4.6201,-4.6221,-4.6336,-4.6405,-4.6457,-4.6521,-4.6533,-4.6584,-4.663,-4.6589,-4.659,-4.652,-4.6153,-4.6063,-4.636,-4.6357,-4.6355,-4.6353,-4.6352,-4.6625,-4.6522,-4.6701,-4.6755,-4.6831,-4.6936,-4.688,-4.6987,-4.7022,-4.7088,-4.7002,-4.6737,-4.6697,-4.6667,-4.6592,-4.7008,-4.7008,-4.7008,-4.7008,-4.6865,-4.684,-4.7013,-4.7101,-4.7182,-4.7149,-4.7353,-4.7363,-4.7358,-4.7378,-4.7311,-4.7207,-4.7177,-4.7156,-4.7114,-4.7045,-4.7566,-4.7567,-4.7567,-4.7125,-4.7105,-4.7288,-4.7281,-4.7337,-4.7387,-4.7577,-4.7681,-4.7653,-4.7589,-4.7393,-4.737,-4.7202,-4.7149,-4.7085,-4.7021,-4.6892,0,0]},{"header":{"parameterUnit":"m.s-1","parameterCategory":1,"la1":30.2992,"la2":30.254,"lo1":-89.0895,"lo2":-89.0443,"dy":0.0025,"dx":0.0025,"nx":19,"ny":19,"refTime":"2026-04-04T21:00:00:Z","depth":0,"parameterNumber":3,"parameterNumberName":"V-component_of_WINDS"},"data":[0,0,0,-6.7982,-6.7985,-6.8121,-6.8122,-6.8312,-6.8314,0,0,0,0,0,0,0,0,0,0,0,-6.7956,-6.7958,-6.7982,-6.7986,-6.8121,-6.8122,-6.8312,-6.8314,0,0,0,0,0,0,0,0,0,0,0,-6.7955,-6.7957,-6.7959,-6.7986,-6.8121,-6.8122,-6.8311,-6.8202,0,0,0,0,0,0,0,0,0,0,-6.8067,-6.8057,-6.7957,-6.796,-6.7987,-6.8121,-6.8122,-6.8196,-6.8209,-6.8259,0,-6.8311,0,-6.8316,-6.8328,-6.8329,0,0,0,-6.7974,-6.8047,-6.8071,-6.796,-6.7989,-6.8121,-6.8057,-6.8203,-6.8217,-6.8276,-6.8313,-6.832,-6.8319,-6.833,-6.8331,-6.8665,-6.8667,0,0,-6.7967,-6.7987,-6.8062,-6.8081,-6.8065,-6.8053,-6.8061,-6.8211,-6.8252,-6.8314,-6.8324,-6.8322,-6.8331,-6.8333,-6.8663,-6.8665,0,0,0,-6.7953,-6.7982,-6.8002,-6.8074,-6.8097,-6.8057,-6.8067,-6.8245,-6.825,-6.8326,-6.8324,-6.8332,-6.8335,-6.866,-6.8663,-6.8787,0,0,0,-6.7948,-6.7974,-6.8,-6.8013,-6.8095,-6.8174,-6.8098,-6.824,-6.8256,-6.8323,-6.8332,-6.8337,-6.8658,-6.8662,-6.8779,-6.8842,0,0,0,-6.7942,-6.7973,-6.7998,-6.8014,-6.8074,-6.8171,-6.8184,-6.8243,-6.8256,-6.8329,-6.8337,-6.8656,-6.8661,-6.8771,-6.883,-6.8936,0,0,0,-6.7941,-6.8105,-6.8,-6.8182,-6.8073,-6.8248,-6.8183,-6.8312,-6.8389,-6.8333,-6.8658,-6.8663,-6.8769,-6.8822,-6.8928,-6.9029,-6.9073,0,0,-6.8159,-6.8132,-6.8238,-6.8148,-6.8347,-6.8225,-6.8441,-6.8491,-6.8478,-6.8602,-6.861,-6.8782,-6.8829,-6.8934,-6.9313,-6.9348,0,0,0,-6.8313,-6.839,-6.8438,-6.8514,-6.8558,-6.8599,-6.8615,-6.8633,-6.8738,-6.8547,-6.8848,-6.8875,-6.8936,-6.8983,-6.9013,-6.9063,-6.8686,-6.8685,-6.8685,-6.8651,-6.8627,-6.8799,-6.8792,-6.8866,-6.888,-6.8937,-6.8963,-6.8916,-6.8987,-6.9024,-6.9257,-6.9313,-6.9336,-6.9389,-6.9075,-6.9076,-6.9076,-6.9077,-6.8967,-6.9071,-6.9006,-6.915,-6.9122,-6.9241,-6.926,-6.9223,-6.9328,-6.9228,-6.928,-6.9173,-6.9375,-6.942,-6.9086,-6.9084,-6.9083,-6.9082,-6.9081,-6.9186,-6.9231,-6.9252,-6.9358,-6.9442,-6.9427,-6.9532,-6.9502,-6.9475,-6.9527,-6.9561,-6.9559,-6.9553,-6.9545,-6.9546,-6.9547,-6.9548,-6.9548,-6.9549,-6.9404,-6.9424,-6.9517,-6.9577,-6.9621,-6.9675,-6.9689,-6.9731,-6.9769,-6.9739,-6.9739,-6.9684,-6.94,-6.9329,-6.9561,-6.9559,-6.9557,-6.9556,-6.9555,-6.9734,-6.9655,-6.9799,-6.9844,-6.991,-6.9995,-6.9956,-7.0042,-7.0072,-7.0124,-7.0058,-6.9853,-6.9822,-6.9798,-6.9739,-7.0063,-7.0063,-7.0063,-7.0063,-6.9919,-6.99,-7.0041,-7.0114,-7.0181,-7.016,-7.0321,-7.0333,-7.0332,-7.0348,-7.0296,-7.0216,-7.0192,-7.0175,-7.0143,-7.0088,-7.0493,-7.0493,-7.0494,-7.012,-7.0107,-7.0251,-7.0252,-7.0301,-7.0343,-7.0493,-7.0576,-7.0558,-7.0511,-7.0359,-7.0341,-7.021,-7.017,-7.0119,-7.007,-6.9967,0,0]}]]